Location: Chapel Hill
(35.9134°N, 79.0560°W)
Time: 10:40:32
(UTC-04:00)

ACS3 Solar Sail - Pass Details

Date: 18 June 2024
Orbit: 992 x 1023 km, 97.4° (Epoch: 11 July)

Event Time Altitude Azimuth Distance (km) Brightness Sun altitude
Exits shadow 23:43:12 29° 226° (SW) 1,738 5.9 -26.6°
Maximum altitude 23:45:18 37° 264° (W) 1,507 5.9 -26.8°
Drops below altitude 10° 23:51:01 10° 331° (NNW) 2,767 8.1 -27.2°
Sets 23:53:43 0° 339° (NNW) 3,717 9.1 -27.4°
